logo
App data

Alpha Runner

Alpha Runner is a challenging endless platform game, Make your way through different obstacles and mini games that get more difficult the further you get. Show off to your friends by getting the highest score on the leaderboard. Or even play with them and see who can survive the longest.
Store | Hub | SteamDB | Site
Developer: LightsoutGames Publisher: Lightsoutgames
Genre: Adventure, Casual, Indie
Languages: English
Tags: Indie (41), Casual (33), Adventure (31), Platformer (23), Runner (5)
Category: Single-player, Steam Achievements, Steam Trading Cards, Partial Controller Support, Stats, Steam Leaderboards
Release date: Sep 2, 2015 (previously in Early Access)
Price: $0.99
Old userscore: 78% Owners: 100,000 .. 200,000
Followers: 353
Peak concurrent players yesterday: 2
Playtime total: 02:23 (average) 03:02 (median)

Steam Spy is still in beta, so expect major bugs.

Owners data:

Access restricted.

This feature is only available to users with special access rights. Sorry.

If you want to proceed, you need to register or log in first and then back Steam Spy on Patreon. Look for Indie or Pro pledge.

Don't forget to use the same email as on Steam Spy!

If you've recently backed Steam Spy on Patreon, please note, that it might take around 15 minutes for your access rights to sync. In most cases you'll need to re-login on Steam Spy too.

Audience in 2 weeks:

Access restricted.

This feature is only available to users with special access rights. Sorry.

If you want to proceed, you need to register or log in first and then back Steam Spy on Patreon. Look for Indie or Pro pledge.

Don't forget to use the same email as on Steam Spy!

If you've recently backed Steam Spy on Patreon, please note, that it might take around 15 minutes for your access rights to sync. In most cases you'll need to re-login on Steam Spy too.

Peak daily concurrent players:

CCU data courtesy of SteamDB. Used with permission.

Hourly concurrent players:

Followers over time

Access restricted.

This feature is only available to users with special access rights. Sorry.

If you want to proceed, you need to register or log in first and then back Steam Spy on Patreon. Look for Indie or Pro pledge.

Don't forget to use the same email as on Steam Spy!

If you've recently backed Steam Spy on Patreon, please note, that it might take around 15 minutes for your access rights to sync. In most cases you'll need to re-login on Steam Spy too.

Views for top 50 videos on YouTube for this game:

Games similar to this one:

# Game Release date
Price
Score rank
(Userscore / Metascore)
Owners
Players
Playtime (Median)
1 Hustle Cat Mar 16, 2016 $1.99N/A (N/A)50,000 .. 100,0000%00:00 (00:00)
2 Totally Unbalanced Jul 29, 2016 FreeN/A (N/A)50,000 .. 100,0000%00:00 (00:00)
3 Magma Tsunami Jun 1, 2016 $0.99N/A (N/A)200,000 .. 500,0000%00:00 (00:00)
4 King's Guard TD Jun 8, 2016 $2.39N/A (N/A)200,000 .. 500,0000%00:00 (00:00)
5 Hyposphere May 5, 2016 $0.59N/A (N/A)200,000 .. 500,0000%00:00 (00:00)
6 Reptilian Rebellion Aug 7, 2016 $2.99N/A (N/A)50,000 .. 100,0000%00:00 (00:00)
7 Love in the Glen Jun 8, 2016 $1.79N/A (N/A)0 .. 20,0000%00:00 (00:00)
8 Melting Hearts: Our Love Will Grow 2 Apr 29, 2016 N/AN/A (N/A)20,000 .. 50,0000%00:00 (00:00)
9 Sky to Fly: Soulless Leviathan Jul 22, 2016 $3.99N/A (N/A)20,000 .. 50,0000%00:00 (00:00)
10 Forgotten, Not Lost - A Kinetic Novel Apr 2, 2016 $1.99N/A (N/A)50,000 .. 100,0000%00:00 (00:00)
11 Burst Mar 14, 2016 N/AN/A (N/A)20,000 .. 50,0000%00:00 (00:00)
12 Hide and Secret Treasure of the Ages Jun 17, 2016 $0.84N/A (N/A)20,000 .. 50,0000%00:00 (00:00)
13 RePete Mar 9, 2016 $1.99N/A (N/A)0 .. 20,0000%00:00 (00:00)
14 Sophie's Curse Mar 16, 2016 $2.49N/A (N/A)50,000 .. 100,0000%00:00 (00:00)
15 Broken Dreams Feb 19, 2016 $0.99N/A (N/A)500,000 .. 1,000,0000%00:00 (00:00)
16 SquareCells Dec 7, 2015 $0.89N/A (N/A)50,000 .. 100,0000%00:00 (00:00)
17 Rescue Team 5 Nov 18, 2015 $0.79N/A (N/A)0 .. 20,0000%00:00 (00:00)
18 BAD END Nov 25, 2015 $2.49N/A (N/A)20,000 .. 50,0000%00:00 (00:00)
19 The Last NightMary - A Lenda do Cabeça de Cuia Nov 2, 2015 $1.09N/A (N/A)50,000 .. 100,0000%00:00 (00:00)
20 Star Sky Oct 23, 2015 $0.79N/A (N/A)0 .. 20,0000%00:00 (00:00)
21 Lift It Jan 20, 2017 $0.54N/A (N/A)50,000 .. 100,0000%00:00 (00:00)
22 The Survey Oct 27, 2016 $0.99N/A (N/A)50,000 .. 100,0000%00:00 (00:00)
23 Darkarta: A Broken Heart's Quest Collector's Edition Mar 8, 2017 $3.99N/A (N/A)50,000 .. 100,0000%00:00 (00:00)
24 Dungeon Painter Studio Feb 26, 2017 $14.99N/A (N/A)50,000 .. 100,0000%00:00 (00:00)
25 Ninja Stealth 2 Jan 30, 2017 $0.49N/A (N/A)100,000 .. 200,0000%00:00 (00:00)
26 Griptape Backbone May 5, 2017 FreeN/A (N/A)0 .. 20,0000%00:00 (00:00)
27 Winexy Jan 13, 2017 $0.49N/A (N/A)50,000 .. 100,0000%00:00 (00:00)
28 Idle Evolution Apr 3, 2017 $2.49N/A (N/A)20,000 .. 50,0000%00:00 (00:00)
29 Space Hotel Jan 4, 2017 $1.99N/A (N/A)0 .. 20,0000%00:00 (00:00)
30 iREC Jan 16, 2017 $0.49N/A (N/A)200,000 .. 500,0000%00:00 (00:00)
31 Neon Prism Nov 18, 2016 $1.09N/A (N/A)100,000 .. 200,0004.35%04:33 (01:31)
32 Gridworld Dec 29, 2015 $0.99N/A (N/A)0 .. 20,0000%00:00 (00:00)
33 GO AWAY, THERE'S KUMIS OVER THERE! Oct 28, 2016 $0.99N/A (N/A)50,000 .. 100,0000%00:00 (00:00)
34 Kombine Oct 14, 2016 $0.51N/A (N/A)20,000 .. 50,0000%00:00 (00:00)
35 Turbo Pug 3D Sep 20, 2016 $0.99N/A (N/A)500,000 .. 1,000,0000%00:00 (00:00)
36 Football Blitz Jan 4, 2017 N/AN/A (N/A)0 .. 20,0000%00:00 (00:00)
37 Won't You Be My Laser? Sep 2, 2016 $0.51N/A (N/A)50,000 .. 100,0000%00:00 (00:00)
38 Optika Aug 26, 2016 $4.99N/A (N/A)0 .. 20,0000%00:00 (00:00)
39 Clock Simulator Jul 20, 2016 N/AN/A (N/A)20,000 .. 50,0000%00:00 (00:00)
40 ConflictCraft Dec 8, 2016 $0.49N/A (N/A)100,000 .. 200,0000%00:00 (00:00)
41 Beeftacular Aug 26, 2016 $0.89N/A (N/A)20,000 .. 50,0000%00:00 (00:00)
42 Bloop Reloaded Feb 6, 2015 N/AN/A (N/A)100,000 .. 200,0000%00:00 (00:00)
43 Streets of Chaos Jan 23, 2015 N/AN/A (N/A)100,000 .. 200,0000%00:00 (00:00)
44 Astro Emporia Feb 2, 2015 $0.51N/A (N/A)50,000 .. 100,0000%00:00 (00:00)
45 Pixel Puzzles 2: Birds Feb 20, 2015 $0.49N/A (N/A)200,000 .. 500,0000%00:00 (00:00)
46 Bob Was Hungry Aug 19, 2015 $1.99N/A (N/A)50,000 .. 100,0000%00:00 (00:00)
47 12 Labours of Hercules Mar 23, 2015 $1.49N/A (N/A)100,000 .. 200,0000%00:00 (00:00)
48 Marble Duel: Sphere-Matching Tactical Fantasy Nov 12, 2015 $2.24N/A (N/A)50,000 .. 100,0000%00:00 (00:00)
49 The Jackbox Party Pack Nov 26, 2014 $12.49N/A (N/A)200,000 .. 500,0000%00:00 (00:00)
50 Sinister City Oct 20, 2014 $0.69N/A (N/A)100,000 .. 200,0000%00:00 (00:00)
51 Laserlife Sep 22, 2015 $6.99N/A (N/A)20,000 .. 50,0000%00:00 (00:00)
52 A Good Snowman Is Hard To Build Feb 25, 2015 $2.49N/A (N/A)50,000 .. 100,0000%00:00 (00:00)
53 Racecraft Mar 4, 2016 FreeN/A (N/A)20,000 .. 50,0000%00:00 (00:00)
54 Cyto Jul 10, 2014 $3.99N/A (N/A)20,000 .. 50,0000%00:00 (00:00)
55 Rage Runner May 16, 2014 $0.99N/A (N/A)0 .. 20,0000%00:00 (00:00)
56 On Rusty Trails Jun 13, 2016 $1.94N/A (N/A/77%)20,000 .. 50,0000%00:00 (00:00)
57 Tribloos 2 Jan 30, 2014 $4.99N/A (N/A)100,000 .. 200,0000%00:00 (00:00)
58 Paranormal State: Poison Spring Nov 26, 2013 N/AN/A (N/A)50,000 .. 100,0000%00:00 (00:00)
59 Grapple Mar 9, 2015 $6.99N/A (N/A)20,000 .. 50,0000%00:00 (00:00)
60 Girls Like Robots Feb 14, 2014 $1.74N/A (N/A)100,000 .. 200,0000%00:00 (00:00)
61 Oozi: Earth Adventure Dec 5, 2013 $0.99N/A (N/A/66%)20,000 .. 50,0000%00:00 (00:00)
62 Luxor Evolved Mar 1, 2012 $3.39N/A (N/A)50,000 .. 100,0000%00:00 (00:00)
63 Fate Tectonics Sep 9, 2015 $4.99N/A (N/A)20,000 .. 50,0000%00:00 (00:00)
64 Tennis in the Face Nov 18, 2015 $1.19N/A (N/A)0 .. 20,0000%00:00 (00:00)
65 The Deletion Jul 30, 2015 $1.79N/A (N/A)20,000 .. 50,0000%00:00 (00:00)
66 Collisions Jul 28, 2015 $4.99N/A (N/A)50,000 .. 100,0000%00:00 (00:00)
67 Robot vs Birds Zombies Jun 1, 2013 $0.99N/A (N/A)500,000 .. 1,000,0000%00:00 (00:00)
68 In Between Aug 21, 2015 $1.19N/A (N/A/68%)50,000 .. 100,0000%00:00 (00:00)
69 Asphyxia Aug 4, 2015 $1.79N/A (N/A)20,000 .. 50,0000%00:00 (00:00)
70 Wanda - A Beautiful Apocalypse Jun 3, 2016 $1.99N/A (N/A)100,000 .. 200,0000%00:00 (00:00)
71 Star Chronicles: Delta Quadrant Jul 7, 2015 $0.99N/A (N/A)200,000 .. 500,0000%00:00 (00:00)
72 Koala Kids Jun 22, 2015 $0.49N/A (N/A)100,000 .. 200,0000%00:00 (00:00)
73 Governor of Poker 2 - Premium Edition Oct 11, 2010 $14.99N/A (N/A)20,000 .. 50,0000%00:00 (00:00)
74 Way of Gold and Steel Aug 17, 2015 $8.99N/A (N/A)20,000 .. 50,0000%00:00 (00:00)
75 Power of Love Jul 21, 2015 $0.5N/A (N/A)20,000 .. 50,0000%00:00 (00:00)
76 Beat Da Beat Mar 10, 2016 $1.99N/A (N/A)20,000 .. 50,0000%00:00 (00:00)
77 Egg Returns Home May 5, 2015 N/AN/A (N/A)100,000 .. 200,0000%00:00 (00:00)
78 Earthtongue Apr 27, 2015 $4.99N/A (N/A)100,000 .. 200,0000%00:00 (00:00)
79 Alter World May 29, 2015 $0.99N/A (N/A)200,000 .. 500,0000%00:00 (00:00)
80 Drizzlepath Mar 12, 2015 $1.99N/A (N/A)20,000 .. 50,0000%00:00 (00:00)
81 Pester Jan 25, 2013 $0.54N/A (N/A)100,000 .. 200,0000%00:00 (00:00)
82 Chip's Challenge 2 May 28, 2015 $4.99N/A (N/A)20,000 .. 50,0000%00:00 (00:00)

Tags over time:

Access restricted.

This feature is only available to users with special access rights. Sorry.

If you want to proceed, you need to register or log in first and then back Steam Spy on Patreon. Look for Indie or Pro pledge.

Don't forget to use the same email as on Steam Spy!

If you've recently backed Steam Spy on Patreon, please note, that it might take around 15 minutes for your access rights to sync. In most cases you'll need to re-login on Steam Spy too.

Owners of this game also own:

Access restricted.

This feature is only available to users with special access rights. Sorry.

If you want to proceed, you need to register or log in first and then back Steam Spy on Patreon. Look for Indie or Pro pledge.

Don't forget to use the same email as on Steam Spy!

If you've recently backed Steam Spy on Patreon, please note, that it might take around 15 minutes for your access rights to sync. In most cases you'll need to re-login on Steam Spy too.

Playtime distribution:

Access restricted.

This feature is only available to users with special access rights. Sorry.

If you want to proceed, you need to register or log in first and then back Steam Spy on Patreon. Look for Indie or Pro pledge.

Don't forget to use the same email as on Steam Spy!

If you've recently backed Steam Spy on Patreon, please note, that it might take around 15 minutes for your access rights to sync. In most cases you'll need to re-login on Steam Spy too.

Playtime (2 weeks):

Access restricted.

This feature is only available to users with special access rights. Sorry.

If you want to proceed, you need to register or log in first and then back Steam Spy on Patreon. Look for Indie or Pro pledge.

Don't forget to use the same email as on Steam Spy!

If you've recently backed Steam Spy on Patreon, please note, that it might take around 15 minutes for your access rights to sync. In most cases you'll need to re-login on Steam Spy too.

User reviews:

Login required.

Please register or log in to see this information.